Location: Karlsruhe
(49.0131°N, 8.3874°E)
Time: 05:21:50
(UTC+02:00)

ELECTRON R/B - Visible Passes

Search period start: 21 May 2018 00:00
Search period end: 31 May 2018 00:00
Orbit: 285 x 480 km, 82.9° (Epoch: 20 May)

Date Brightness Start Highest point End Pass type
(mag) Time Alt. Az. Time Alt. Az. Time Alt. Az.
21 May 7.3 23:03:50 10° WNW 23:05:03 13° W 23:06:16 10° WSW visible
22 May 4.3 22:06:22 10° N 22:08:49 80° W 22:11:15 10° S visible
23 May 7.3 22:43:30 10° NW 22:45:00 15° W 22:46:28 10° SW visible
25 May 7.2 22:22:53 10° NW 22:24:37 17° W 22:26:20 10° SW visible
27 May 7.0 22:02:00 10° NW 22:03:55 20° W 22:05:52 10° SW visible
